EW3719 Weather Reports


Display with metric or nautical units.
time (UTC)temp
F
wind
direction
speed
MPH
gust
MPH
rain 1hr
in
rain 24hr
in
rain mn
in
humidity
%
barometer
mb
20260508153056 50 276 5.0 14.0 0.00 0.00 0.00 56 1011.2
20260508151602 49 270 4.0 13.0 0.00 0.00 0.00 57 1011.4
20260508150053 49 294 4.0 12.0 0.00 0.00 0.00 53 1011.4
20260508144550 48 212 5.0 11.0 0.00 0.00 0.00 58 1011.5
20260508143050 47 280 7.0 13.0 0.00 0.00 0.00 60 1011.6
20260508141546 46 278 10.0 14.0 0.00 0.00 0.00 59 1011.6
20260508140045 46 270 6.0 13.0 0.00 0.00 0.00 60 1011.5
20260508134542 46 287 7.0 12.0 0.00 0.00 0.00 62 1011.4
20260508133055 45 254 8.0 12.0 0.00 0.00 0.00 61 1011.5
20260508131544 45 255 5.0 10.0 0.00 0.00 0.00 65 1011.6
20260508130035 44 275 5.0 10.0 0.00 0.00 0.00 65 1011.4
20260508124533 44 263 8.0 12.0 0.00 0.00 0.00 64 1011.3
20260508123043 43 265 7.0 12.0 0.00 0.00 0.00 67 1011.5
20260508121531 43 255 6.0 12.0 0.00 0.00 0.00 66 1011.5
20260508120030 42 256 6.0 11.0 0.00 0.00 0.00 68 1011.6
20260508114528 42 283 6.0 11.0 0.00 0.00 0.00 66 1011.4
20260508113028 42 255 5.0 8.0 0.00 0.00 0.00 68 1011.4
20260508111527 40 232 3.0 6.0 0.00 0.00 0.00 71 1011.4
20260508110025 40 285 3.0 8.0 0.00 0.00 0.00 69 1011.2
20260508104524 40 285 2.0 7.0 0.00 0.00 0.00 69 1011.2
20260508103022 39 245 3.0 8.0 0.00 0.00 0.00 71 1011.0
20260508101522 38 264 2.0 7.0 0.00 0.00 0.00 75 1010.8
20260508100025 37 231 2.0 4.0 0.00 0.00 0.00 75 1010.9
20260508094519 38 243 2.0 4.0 0.00 0.00 0.00 74 1010.7
20260508093023 37 216 1.0 3.0 0.00 0.00 0.00 74 1010.7
20260508091525 37 256 1.0 3.0 0.00 0.00 0.00 73 1010.7
20260508090021 38 215 0.0 3.0 0.00 0.00 0.00 73 1010.7
20260508084511 39 232 1.0 5.0 0.00 0.00 0.00 70 1010.7
20260508083010 39 259 1.0 5.0 0.00 0.00 0.00 70 1010.7
20260508081507 40 247 2.0 6.0 0.00 0.00 0.00 70 1010.7
20260508080005 40 252 3.0 6.0 0.00 0.00 0.00 69 1010.6
20260508074502 40 273 3.0 8.0 0.00 0.00 0.00 68 1010.5
20260508073000 41 254 3.0 10.0 0.00 0.00 0.00 67 1010.4
20260508071601 41 304 4.0 9.0 0.00 0.00 0.00 67 1010.4
20260508070107 41 304 4.0 8.0 0.00 0.00 0.00 66 1010.4
20260508064556 41 243 3.0 10.0 0.00 0.00 0.00 65 1010.4
20260508063057 42 255 3.0 10.0 0.00 0.00 0.00 65 1010.3
20260508061556 42 276 4.0 9.0 0.00 0.00 0.00 65 1010.3
20260508060056 42 264 4.0 10.0 0.00 0.00 0.00 65 1010.3
20260508054553 42 274 5.0 11.0 0.00 0.00 0.00 67 1010.3
20260508053054 43 257 5.0 11.0 0.00 0.00 0.00 67 1010.3
20260508051546 43 273 4.0 9.0 0.00 0.00 0.00 70 1010.2
20260508050042 41 250 2.0 4.0 0.00 0.00 0.00 80 1010.2
20260508044558 41 238 3.0 4.0 0.00 0.00 0.00 81 1010.2
20260508043044 41 242 3.0 5.0 0.00 0.00 0.00 80 1010.2
20260508041535 41 238 2.0 4.0 0.00 0.00 0.00 79 1010.1
20260508040031 42 256 3.0 6.0 0.00 0.00 0.00 78 1010.1
20260508034541 42 256 4.0 9.0 0.00 0.00 0.00 78 1010.0
20260508033030 42 236 4.0 9.0 0.00 0.00 0.00 77 1010.0
20260508031529 41 233 4.0 7.0 0.00 0.00 0.00 77 1010.0
20260508030029 42 236 4.0 6.0 0.00 0.00 0.00 77 1009.9
20260508024534 42 240 4.0 7.0 0.00 0.00 0.00 76 1009.9
20260508023030 42 216 3.0 5.0 0.00 0.00 0.00 76 1009.9
20260508021627 42 225 4.0 7.0 0.00 0.00 0.00 75 1009.9
20260508020025 43 239 5.0 9.0 0.00 0.00 0.00 73 1009.9
20260508014526 43 240 5.0 9.0 0.00 0.00 0.00 72 1009.8
20260508013024 43 231 6.0 10.0 0.00 0.00 0.00 72 1009.8
20260508011535 44 258 5.0 11.0 0.00 0.00 0.00 70 1009.6
20260508010023 45 264 7.0 12.0 0.00 0.00 0.00 69 1009.4
20260508004526 45 254 7.0 14.0 0.00 0.00 0.00 69 1009.2
20260508003022 45 223 7.0 13.0 0.00 0.00 0.00 68 1009.1
20260508001521 46 238 7.0 14.0 0.00 0.00 0.00 67 1009.1
20260508000021 46 236 9.0 15.0 0.00 0.00 0.00 65 1009.0
20260507234522 47 239 7.0 14.0 0.00 0.00 0.00 63 1008.9
20260507233022 48 227 11.0 18.0 0.00 0.00 0.00 59 1008.9
20260507231530 49 278 4.0 11.0 0.00 0.00 0.00 59 1009.0
20260507230017 49 233 9.0 14.0 0.00 0.00 0.00 59 1009.1
20260507224520 49 232 8.0 15.0 0.00 0.00 0.00 60 1009.1
20260507223016 49 232 8.0 17.0 0.00 0.00 0.00 60 1009.1
20260507221516 50 234 7.0 13.0 0.00 0.00 0.00 57 1009.0
20260507220016 50 257 6.0 14.0 0.00 0.00 0.00 55 1009.1
20260507214511 51 242 9.0 15.0 0.00 0.00 0.00 56 1009.3
20260507213010 49 196 9.0 16.0 0.00 0.00 0.00 57 1009.3
20260507211512 49 266 8.0 17.0 0.00 0.00 0.00 59 1009.3
20260507210009 50 236 13.0 20.0 0.00 0.00 0.00 55 1009.4
20260507204507 49 238 10.0 20.0 0.00 0.00 0.00 59 1009.4
20260507203005 49 242 9.0 18.0 0.00 0.00 0.00 58 1009.6
20260507201507 50 224 12.0 19.0 0.00 0.00 0.00 56 1009.6
20260507200005 50 270 10.0 15.0 0.00 0.00 0.00 57 1009.8
20260507194502 50 221 8.0 19.0 0.00 0.00 0.00 57 1009.8
20260507193103 50 245 12.0 21.0 0.00 0.00 0.00 57 1010.0
20260507193001 50 247 11.0 21.0 0.00 0.00 0.00 57 1010.0
20260507191559 50 232 12.0 17.0 0.00 0.00 0.00 55 1010.0
20260507190057 50 245 7.0 18.0 0.00 0.00 0.00 58 1010.3
20260507184556 50 239 9.0 20.0 0.00 0.00 0.00 58 1010.4
20260507183103 50 283 11.0 17.0 0.00 0.00 0.00 56 1010.3
20260507181554 49 254 11.0 19.0 0.00 0.00 0.00 57 1010.5
20260507180055 49 219 12.0 18.0 0.00 0.00 0.00 54 1010.5
20260507174605 49 248 11.0 18.0 0.00 0.00 0.00 55 1010.5
20260507173059 49 276 12.0 18.0 0.00 0.00 0.00 51 1010.5
20260507171608 49 267 9.0 18.0 0.00 0.00 0.00 53 1010.7
20260507170055 48 259 11.0 19.0 0.00 0.00 0.00 55 1010.7
20260507164602 48 267 11.0 19.0 0.00 0.01 0.00 53 1010.8
20260507163050 49 280 6.0 18.0 0.00 0.01 0.00 55 1010.9
20260507161550 48 255 11.0 20.0 0.00 0.01 0.00 52 1010.9
20260507160048 49 234 8.0 18.0 0.00 0.01 0.00 53 1010.9